timestamp,surface_pressure_avg,surface_temp_avg,battery_voltage,lat,long
2019-02-21 00:00:00+00:00,369.5046,-0.73,12.97,47.84626,-54.09684
2019-02-21 00:10:00+00:00,372.938,-0.76,12.89,47.84626,-54.09684
2019-02-21 00:20:00+00:00,372.1263,-0.8,12.89,47.84626,-54.09684
2019-02-21 00:30:00+00:00,373.3995,-0.7,12.89,47.84626,-54.09684
2019-02-21 00:40:00+00:00,377.4313,-0.7,12.97,47.84626,-54.09684
2019-02-21 00:50:00+00:00,375.7446,-0.7,12.97,47.84626,-54.09684
2019-02-21 01:00:00+00:00,375.2796,-0.7,12.81,47.84626,-54.09684
2019-02-21 01:10:00+00:00,378.4012,-0.66,12.73,47.84626,-54.09684
2019-02-21 01:20:00+00:00,376.4547,-0.6,12.81,47.84626,-54.09684
2019-02-21 01:30:00+00:00,373.503,-0.6,12.81,47.84626,-54.09684
2019-02-21 01:40:00+00:00,374.4579,-0.6,12.89,47.84626,-54.09684
2019-02-21 01:50:00+00:00,372.6963,-0.6,12.89,47.84626,-54.09684
2019-02-21 02:00:00+00:00,368.8246,-0.6,12.81,47.84626,-54.09684
2019-02-21 02:10:00+00:00,363.6113,-0.6,12.73,47.84626,-54.09684
2019-02-21 02:20:00+00:00,359.728,-0.6,12.81,47.84626,-54.09684
2019-02-21 02:30:00+00:00,357.9862,-0.63,12.81,47.84626,-54.09684
2019-02-21 02:40:00+00:00,350.4563,-0.63,12.81,47.84626,-54.09684
2019-02-21 02:50:00+00:00,339.9163,-0.66,12.89,47.84626,-54.09684
2019-02-21 03:00:00+00:00,335.3463,-0.7,12.73,47.84626,-54.09684
2019-02-21 03:10:00+00:00,328.933,-0.7,12.65,47.84626,-54.09684
2019-02-21 03:20:00+00:00,317.7514,-0.74,12.81,47.84626,-54.09684
2019-02-21 03:30:00+00:00,308.1397,-0.7,12.81,47.84626,-54.09684
2019-02-21 03:40:00+00:00,302.7164,-0.64,12.81,47.84626,-54.09684
2019-02-21 03:50:00+00:00,292.5048,-0.7,12.81,47.84626,-54.09684
2019-02-21 04:00:00+00:00,277.7197,-0.7,12.73,47.84626,-54.09684
2019-02-21 04:10:00+00:00,265.9181,-0.7,12.65,47.84626,-54.09684
2019-02-21 04:20:00+00:00,256.8948,-0.7,12.73,47.84626,-54.09684
2019-02-21 04:30:00+00:00,246.7448,-0.7,12.73,47.84626,-54.09684
2019-02-21 04:40:00+00:00,237.0948,-0.8,12.81,47.84626,-54.09684
2019-02-21 04:50:00+00:00,232.1398,-0.8,12.81,47.84626,-54.09684
2019-02-21 05:00:00+00:00,228.6998,-0.9,12.65,47.84626,-54.09684
2019-02-21 05:10:00+00:00,221.7765,-0.9,12.65,47.84626,-54.09684
2019-02-21 05:20:00+00:00,214.0998,-0.9,12.73,47.84626,-54.09684
2019-02-21 05:30:00+00:00,208.4014,-0.97,12.73,47.84626,-54.09684
2019-02-21 05:40:00+00:00,204.0864,-0.9,12.73,47.84626,-54.09684
2019-02-21 05:50:00+00:00,196.5664,-0.86,12.73,47.84626,-54.09684
2019-02-21 06:00:00+00:00,193.1281,-0.9,12.65,47.84626,-54.09684
2019-02-21 06:10:00+00:00,192.1348,-0.9,12.57,47.84626,-54.09684
2019-02-21 06:20:00+00:00,191.1815,-0.9,12.65,47.84626,-54.09684
2019-02-21 06:30:00+00:00,190.3281,-0.9,12.65,47.84626,-54.09684
2019-02-21 06:40:00+00:00,190.2982,-0.95,12.65,47.84626,-54.09684
2019-02-21 06:50:00+00:00,195.8598,-1.0,12.73,47.84626,-54.09684
2019-02-21 07:00:00+00:00,199.4531,-1.0,12.57,47.84626,-54.09684
2019-02-21 07:10:00+00:00,200.2498,-1.0,12.57,47.84626,-54.09684
2019-02-21 07:20:00+00:00,204.7315,-1.0,12.65,47.84626,-54.09684
2019-02-21 07:30:00+00:00,212.0064,-1.0,12.65,47.84626,-54.09684
2019-02-21 07:40:00+00:00,216.0265,-1.02,12.65,47.84626,-54.09684
2019-02-21 07:50:00+00:00,219.2748,-1.1,12.65,47.84626,-54.09684
2019-02-21 08:00:00+00:00,229.7914,-1.15,12.57,47.84626,-54.09684
2019-02-21 08:10:00+00:00,233.5748,-1.2,12.57,47.84626,-54.09684
2019-02-21 08:20:00+00:00,233.7531,-1.2,12.65,47.84626,-54.09684
2019-02-21 08:30:00+00:00,240.0497,-1.2,12.65,47.84626,-54.09684
2019-02-21 08:40:00+00:00,249.9598,-1.2,12.65,47.84626,-54.09684
2019-02-21 08:50:00+00:00,254.1547,-1.2,12.65,47.84626,-54.09684
2019-02-21 09:00:00+00:00,257.1764,-1.13,12.57,47.84626,-54.09684
2019-02-21 09:10:00+00:00,263.563,-1.1,12.49,47.84626,-54.09684
2019-02-21 09:20:00+00:00,269.6697,-1.1,12.57,47.84626,-54.09684
2019-02-21 09:30:00+00:00,273.1264,-1.07,12.57,47.84626,-54.09684
2019-02-21 09:40:00+00:00,280.3997,-1.1,12.65,47.84626,-54.09684
2019-02-21 09:50:00+00:00,291.3314,-1.1,12.65,47.84626,-54.09684
2019-02-21 10:00:00+00:00,298.9664,-1.13,12.57,47.84626,-54.09684
2019-02-21 10:10:00+00:00,304.4247,-1.19,12.49,47.84626,-54.09684
2019-02-21 10:20:00+00:00,310.5197,-1.2,12.57,47.84626,-54.09684
2019-02-21 10:30:00+00:00,320.813,-1.2,12.57,47.84626,-54.09684
2019-02-21 10:40:00+00:00,332.678,-1.2,12.65,47.84626,-54.09684
2019-02-21 10:50:00+00:00,341.5463,-1.2,13.13,47.84626,-54.09684
2019-02-21 11:00:00+00:00,352.4695,-1.2,13.6,47.84626,-54.09684
2019-02-21 11:10:00+00:00,363.9246,-1.26,15.6,47.84626,-54.09684
2019-02-21 11:20:00+00:00,371.0862,-1.3,17.03,47.84626,-54.09684
2019-02-21 11:30:00+00:00,375.9163,-1.24,17.42,47.84626,-54.09684
2019-02-21 11:40:00+00:00,380.8511,-1.21,17.42,47.84626,-54.09684
2019-02-21 11:50:00+00:00,390.1229,-1.2,17.42,47.84626,-54.09684
2019-02-21 12:00:00+00:00,393.9495,-1.2,16.87,47.84626,-54.09684
2019-02-21 12:10:00+00:00,392.3296,-1.2,17.03,47.84626,-54.09684
2019-02-21 12:20:00+00:00,397.4529,-1.17,17.27,47.84626,-54.09684
2019-02-21 12:30:00+00:00,406.918,-0.96,17.03,47.84626,-54.09684
2019-02-21 12:40:00+00:00,413.4062,-0.8,16.95,47.84626,-54.09684
2019-02-21 12:50:00+00:00,414.1979,-0.96,16.39,47.84626,-54.09684
2019-02-21 13:00:00+00:00,419.2946,-1.01,15.67,47.84626,-54.09684
2019-02-21 13:10:00+00:00,428.6896,-1.0,15.75,47.84626,-54.09684
2019-02-21 13:20:00+00:00,425.5511,-1.0,15.83,47.84626,-54.09684
2019-02-21 13:30:00+00:00,423.7994,-1.1,15.67,47.84626,-54.09684
2019-02-21 13:40:00+00:00,429.1145,-1.02,15.67,47.84626,-54.09684
2019-02-21 13:50:00+00:00,424.9429,-0.89,15.6,47.84626,-54.09684
2019-02-21 14:00:00+00:00,418.4429,-0.9,15.44,47.84626,-54.09684
2019-02-21 14:10:00+00:00,413.5529,-1.0,15.44,47.84626,-54.09684
2019-02-21 14:20:00+00:00,410.5062,-1.0,15.51,47.84626,-54.09684
2019-02-21 14:30:00+00:00,405.8995,-1.1,15.44,47.84626,-54.09684
2019-02-21 14:40:00+00:00,396.8213,-1.1,15.44,47.84626,-54.09684
2019-02-21 14:50:00+00:00,391.4612,-1.0,15.35,47.84626,-54.09684
2019-02-21 15:00:00+00:00,386.0713,-0.97,15.2,47.84626,-54.09684
2019-02-21 15:10:00+00:00,378.3579,-1.0,15.2,47.84626,-54.09684
2019-02-21 15:20:00+00:00,367.9797,-0.9,15.27,47.84626,-54.09684
2019-02-21 15:30:00+00:00,351.1896,-0.82,15.2,47.84626,-54.09684
2019-02-21 15:40:00+00:00,338.8746,-0.8,15.2,47.84626,-54.09684
2019-02-21 15:50:00+00:00,326.8163,-0.7,15.2,47.84626,-54.09684
2019-02-21 16:00:00+00:00,312.6564,-0.53,15.04,47.84626,-54.09684
2019-02-21 16:10:00+00:00,298.1097,-0.5,15.04,47.84626,-54.09684
2019-02-21 16:20:00+00:00,287.283,-0.5,15.11,47.84626,-54.09684
2019-02-21 16:30:00+00:00,273.838,-0.43,15.04,47.84626,-54.09684
2019-02-21 16:40:00+00:00,257.6348,-0.5,15.04,47.84626,-54.09684
2019-02-21 16:50:00+00:00,247.5831,-0.5,15.04,47.84626,-54.09684
2019-02-21 17:00:00+00:00,239.7382,-0.5,14.96,47.84626,-54.09684
2019-02-21 17:10:00+00:00,225.2515,-0.5,14.96,47.84626,-54.09684
2019-02-21 17:20:00+00:00,213.0815,-0.51,14.96,47.84626,-54.09684
2019-02-21 17:30:00+00:00,207.6865,-0.5,14.96,47.84626,-54.09684
2019-02-21 17:40:00+00:00,198.8398,-0.5,14.96,47.84626,-54.09684
2019-02-21 17:50:00+00:00,188.4547,-0.5,14.96,47.84626,-54.09684
2019-02-21 18:00:00+00:00,182.9932,-0.42,14.8,47.84626,-54.09684
2019-02-21 18:10:00+00:00,175.6698,-0.4,14.72,47.84626,-54.09684
2019-02-21 18:20:00+00:00,167.2198,-0.33,14.88,47.84626,-54.09684
2019-02-21 18:30:00+00:00,166.6798,-0.3,14.8,47.84626,-54.09684
2019-02-21 18:40:00+00:00,162.5681,-0.2,14.8,47.84626,-54.09684
2019-02-21 18:50:00+00:00,157.3615,-0.2,14.72,47.84626,-54.09684
2019-02-21 19:00:00+00:00,163.7115,-0.12,14.64,47.84626,-54.09684
2019-02-21 19:10:00+00:00,165.0665,-0.1,14.48,47.84626,-54.09684
2019-02-21 19:20:00+00:00,167.1881,-0.1,14.56,47.84626,-54.09684
2019-02-21 19:30:00+00:00,177.9798,-0.1,14.48,47.84626,-54.09684
2019-02-21 19:40:00+00:00,181.0548,-0.1,14.56,47.84626,-54.09684
2019-02-21 19:50:00+00:00,172.8415,-0.1,14.48,47.84626,-54.09684
2019-02-21 20:00:00+00:00,169.4165,-0.1,14.4,47.84626,-54.09684
2019-02-21 20:10:00+00:00,177.6131,-0.1,14.24,47.84626,-54.09684
2019-02-21 20:20:00+00:00,185.9597,-0.11,14.24,47.84626,-54.09684
2019-02-21 20:30:00+00:00,190.1348,-0.12,14.24,47.84626,-54.09684
2019-02-21 20:40:00+00:00,198.4414,-0.14,14.16,47.84626,-54.09684
2019-02-21 20:50:00+00:00,208.4098,-0.17,14.08,47.84626,-54.09684
2019-02-21 21:00:00+00:00,214.7064,-0.2,14.0,47.84626,-54.09684
2019-02-21 21:10:00+00:00,216.1598,-0.2,13.84,47.84626,-54.09684
2019-02-21 21:20:00+00:00,222.3381,-0.2,13.76,47.84626,-54.09684
2019-02-21 21:30:00+00:00,235.5964,-0.21,13.68,47.84626,-54.09684
2019-02-21 21:40:00+00:00,239.2247,-0.28,13.68,47.84626,-54.09684
2019-02-21 21:50:00+00:00,239.7731,-0.28,13.68,47.84626,-54.09684
2019-02-21 22:00:00+00:00,249.0014,-0.3,13.53,47.84626,-54.09684
2019-02-21 22:10:00+00:00,257.1114,-0.3,13.37,47.84626,-54.09684
2019-02-21 22:20:00+00:00,261.4431,-0.3,13.37,47.84626,-54.09684
2019-02-21 22:30:00+00:00,272.4181,-0.3,13.29,47.84626,-54.09684
2019-02-21 22:40:00+00:00,286.9414,-0.21,13.29,47.84626,-54.09684
2019-02-21 22:50:00+00:00,297.9747,-0.12,13.29,47.84626,-54.09684
2019-02-21 23:00:00+00:00,305.4363,-0.1,13.21,47.84626,-54.09684
2019-02-21 23:10:00+00:00,310.4413,-0.3,13.05,47.84626,-54.09684
2019-02-21 23:20:00+00:00,314.728,-0.5,13.05,47.84626,-54.09684
2019-02-21 23:30:00+00:00,325.8297,-0.6,13.05,47.84626,-54.09684
2019-02-21 23:40:00+00:00,337.2379,-0.6,13.05,47.84626,-54.09684
2019-02-21 23:50:00+00:00,340.0096,-0.69,13.05,47.84626,-54.09684
